Location: Newark
(30.1000°N, 109.4667°E)
Time: 09:40:47
(UTC+00:00)

A-11 Canister half - Pass Details

Date: 27 February 2020
Orbit: 1516 x 1683 km, 47.2° (Epoch: 07 April)

Event Time Altitude Azimuth Distance (km) Brightness Sun altitude
Rises 12:11:52 0° 308° (NW) 4,851 12.5 -20.8°
Reaches altitude 10° 12:15:20 10° 316° (NW) 3,839 11.7 -21.6°
Maximum altitude 12:24:24 42° 24° (NNE) 2,137 9.5 -23.5°
Enters shadow 12:27:34 33° 64° (ENE) 2,394 9.5 -24.2°
